This is the latest recevied weather packets stored in our database for station/object HB9KBJ-4. If no packets are shown the sender has not sent any weather packets the latest 10 day(s).
| Time | Temp. | Humidity | Pressure | Rain* | Wind** | Luminosity | Snow |
|---|---|---|---|---|---|---|---|
| 1777213143 | 24.44° C | 29% | - | 0 mm | - | - | - |
| 1777212542 | 24.44° C | 29% | - | 0 mm | - | - | - |
| 1777211942 | 24.44° C | 28% | - | 0 mm | - | - | - |
| 1777211641 | 23.89° C | 29% | - | 0 mm | - | - | - |
| 1777211341 | 23.89° C | 28% | - | 0 mm | - | - | - |
| 1777211041 | 24.44° C | 28% | - | 0 mm | - | - | - |
| 1777210740 | 25° C | 26% | - | 0 mm | - | - | - |
| 1777210440 | 24.44° C | 28% | - | 0 mm | - | - | - |
| 1777209840 | 25° C | 27% | - | 0 mm | - | - | - |
| 1777209539 | 25° C | 29% | - | 0 mm | - | - | - |
| 1777208338 | 23.33° C | 28% | - | 0 mm | - | - | - |
| 1777208038 | 23.33° C | 29% | - | 0 mm | - | - | - |
| 1777207738 | 22.78° C | 30% | - | 0 mm | - | - | - |
| 1777206837 | 22.22° C | 28% | - | 0 mm | - | - | - |
| 1777206536 | 22.78° C | 28% | - | 0 mm | - | - | - |
| 1777205936 | 22.22° C | 28% | - | 0 mm | - | - | - |
| 1777205035 | 21.67° C | 30% | - | 0 mm | - | - | - |
| 1777204735 | 21.11° C | 30% | - | 0 mm | - | - | - |
| 1777204132 | 21.11° C | 29% | - | 0 mm | - | - | - |
| 1777203832 | 21.67° C | 30% | - | 0 mm | - | - | - |
| 1777203530 | 21.11° C | 33% | - | 0 mm | - | - | - |
| 1777203230 | 20.56° C | 33% | - | 0 mm | - | - | - |
| 1777202329 | 20° C | 34% | - | 0 mm | - | - | - |
| 1777202029 | 19.44° C | 33% | - | 0 mm | - | - | - |
| 1777201729 | 19.44° C | 35% | - | 0 mm | - | - | - |
* Rain since midnight (hover to see other rain measurements)
** Current wind speed in m/s (hover to see current wind gust speed)